Regional Weather Roundup
Issued by NWS Upton, NY

Current Version | Previous Version | Graphics & Text | Print | Product List | Glossary Off
Versions: 1 2 3 4 5 6 7 8 9 10 11 12 13 14 15 16 17 18 19 20 21 22 23 24 25 26 27 28 29 30 31 32 33 34 35 36 37 38 39 40 41 42 43 44 45 46 47 48 49 50

000
ASUS41 KOKX 271308
RWROKX

REGIONAL WEATHER ROUNDUP
NATIONAL WEATHER SERVICE NEW YORK NY
900 AM EDT WED MAY 27 2015

NOTE: "FAIR" INDICATES FEW OR NO CLOUDS BELOW 12,000 FEET WITH NO
SIGNIFICANT WEATHER AND/OR OBSTRUCTIONS TO VISIBILITY.

NYZ071-072-176-178-NJZ106-104-271400-
NEW YORK CITY METRO AREA


CITY           SKY/WX    TMP DP  RH WIND       PRES   REMARKS
CENTRAL PARK   CLOUDY    74  65  73 SW9       30.20S
LAGUARDIA APRT CLOUDY    72  62  71 S8        30.17S
KENNEDY INTL   CLOUDY    66  59  78 S9        30.20S
NEWARK/LIBERTY CLOUDY    75  67  76 S9        30.17S
BRNX BOT. GARD   N/A     73  64  73 SW13      30.20R
TETERBORO      CLOUDY    74  66  76 S9        30.16S
$$

NYZ177-179-078>081-271400-
LONG ISLAND NEW YORK

CITY           SKY/WX    TMP DP  RH WIND       PRES   REMARKS
FARMINGDALE    CLOUDY    67  62  84 SW10      30.20S
ISLIP          CLOUDY    68  62  81 S12       30.19S
SHIRLEY        CLOUDY    66  60  81 S13       30.21S
WESTHAMPTON    CLOUDY    65  60  84 SW13G21   30.22F
MONTAUK POINT    N/A     64  59  83 SW10G16   30.24R
$$

NYZ052-065-067-271400-
HUDSON VALLEY

CITY           SKY/WX    TMP DP  RH WIND       PRES   REMARKS
WHITE PLAINS   PTSUNNY   72  64  76 S6        30.18S
NEWBURGH       MOSUNNY   73  68  83 SW7       30.16S
MONTGOMERY     MOSUNNY   75  69  81 SW8       30.14S HAZE
POUGHKEEPSIE   MOSUNNY   76  65  68 CALM      30.13F
ALBANY         PTSUNNY   76  65  68 S15G25    30.10R
$$

NJZ001-105-106-008-010-013-015-019>022-104-271400-
NEW JERSEY

CITY           SKY/WX    TMP DP  RH WIND       PRES   REMARKS
NEWARK/LIBERTY CLOUDY    75  67  76 S9        30.17S
TETERBORO      CLOUDY    74  66  76 S9        30.16S
CALDWELL       CLOUDY    71  65  81 SW6       30.17S
MORRISTOWN     CLOUDY    72  66  83 S5        30.18R
SOMERVILLE     CLOUDY    72  66  81 CALM      30.15R
SUSSEX         CLOUDY    72  65  78 SW9       30.17S
ANDOVER          N/A     72  67  84 SW7       30.17R
TRENTON        CLOUDY    74  68  81 SW9       30.17R
MILLVILLE      MOSUNNY   75  68  78 SW7       30.20R
ATLANTIC CITY  MOSUNNY   75  66  73 SW12      30.20S
WRIGHTSTOWN    CLOUDY    74  69  83 SW15      30.16S
TOMS RIVER     CLOUDY   N/A N/A N/A SW13      30.19S
BELMAR         CLOUDY    73  63  68 SW12      30.19S
$$

PAZ047>061-062-071-271400-
EASTERN PENNSYLVANIA

CITY           SKY/WX    TMP DP  RH WIND       PRES   REMARKS
PHILADELPHIA   CLOUDY    76  68  76 SW13G22   30.18R
ALLENTOWN      CLOUDY    74  67  78 S9        30.16R
SCRANTON       MOSUNNY   79  66  64 VRB7G16   30.13S
$$

CTZ002-004>006-009-010-012-RIZ004-006-007-MAZ004-011-015-271400-
SOUTHERN NEW ENGLAND
 IN CT

CITY           SKY/WX    TMP DP  RH WIND       PRES   REMARKS
BRADLEY INTL   PTSUNNY   73  62  68 S12       30.15F
HARTFORD       PTSUNNY   72  63  73 S12       30.16F
DANBURY        MOSUNNY   72  63  73 SW12      30.18S
WTRBRY/OXFORD  PTSUNNY   72  63  73 S7        30.19F
BRIDGEPORT     CLOUDY    68  62  81 S9        30.19S
MERIDEN        PTSUNNY   70  61  73 S9        30.18S
NEW HAVEN      PTSUNNY   67  60  78 SE8       30.19S
CHESTER        CLOUDY    66  63  88 S7        30.21S
GROTON         CLOUDY    63  58  83 S6        30.21S
WILLIMANTIC    MOSUNNY   71  62  73 S10       30.19S

 IN RI

CITY           SKY/WX    TMP DP  RH WIND       PRES   REMARKS
PROVIDENCE     PTSUNNY   69  61  75 S13       30.21R
BLOCK ISLAND   CLOUDY    63  55  77 SW15G22   30.24S
WESTERLY       CLOUDY    64  58  80 S13       30.23R

 IN MA

CITY           SKY/WX    TMP DP  RH WIND       PRES   REMARKS
BOSTON         PTSUNNY   72  62  71 S12       30.16S
WORCESTER      MOSUNNY   72  62  71 SW12      30.18S
WESTFIELD      PTSUNNY   73  62  68 S10       30.15S
PROVINCETOWN   PTSUNNY   64  57  77 S15G24    30.20F
NANTUCKET      SUNNY     65  59  81 S18       30.26S
$$

ANZ330-335-338-340-345-350-353-355-271400-
COASTAL MARINE OBSERVATIONS


STATION/POSITION TIME  SKY/WX   TEMP    WIND        PRES    VSBY  WAVE
                                AIR SEA DIR/SP/G                  HT/PER
                 (UTC)          (F)     (DEG/KT/KT) (MB)    (MI)  (FT/S)
NY HARB ENTRANCE 1250            60 56  200/ 12/ 14 1021.8          3/ 5
4S FIRE IS       1203               56                N/A           4/ 6
20S FIRE ISLAND  1250            59 56  190/ 12/ 14 1022.7          3/ 6
GREAT SOUTH BAY  1200            63 66  250/ 14/ 16   N/A
23SW MTP         1250            57 53  200/  8/ 10 1023.6          3/ 6
HUDSON CANYON    NOT AVBL
KINGS POINT      1200            67 56  190/  6/  9 1021.4
CENTRAL LI SOUND 1215            60 55  190/  8/  8   N/A
EASTERN LI SOUND 1200            59     190/  4/  6   N/A
ROBBINS REEF     1200            68     170/  9/ 11 1020.7
$$


>>>>>>>>>>>>>>>>>>>>>>>>>>>> KEY <<<<<<<<<<<<<<<<<<<<<<<<<<<
>                                                          <
>     SKY/WX - SKY CONDITION/PRESENT WEATHER               <
>     TMP    - TEMPERATURE IN FAHRENHEIT                   <
>     DP     - DEWPOINT IN FAHRENHEIT                      <
>     RH     - RELATIVE HUMIDITY IN PERCENT                <
>     WIND   - DIRECTION AND SPEED IN MPH                  <
>     PRES   - MEAN SEA LEVEL PRESSURE IN INCHES OF HG     <
>     WCI    - WIND CHILL INDEX                            <
>     VSB    - VISIBILITY IN MILES                         <
>     HX     - HEAT INDEX                                  <
>     TC     - TEMPERATURE IN CELSIUS                      <
>     VRB    - VARIABLE WIND DIRECTION                     <
>                                                          <
>>>>>>>>>>>>>>>>>>>>>>>>>>>> KEY <<<<<<<<<<<<<<<<<<<<<<<<<<<




USA.gov is the U.S. government's official web portal to all federal, state and local government web resources and services.